Torna al catalogo

STARLINK-36352

AttivoComunicazioniSSO
NORAD 67567·PAYLOAD·🇺🇸 United States

Lanciato Jan 25, 2026 da Vandenberg Space Force Base

Loading…

Prossimi Passaggi (prossime 24 ore)

TLE

AggiornatoSource: CelesTrak SupGP

Epoca: Sep 14, 2026, 21:01 UTC

1 67567C 26016G   26257.87618056 -.00020970  00000+0 -65036-3 0  2578
2 67567  97.2844 316.6430 0000707  99.6441 132.3432 15.33479239    12

Traccia STARLINK-36352 in tempo reale con AllMySat

Download on the App Store